Moab, UT

8:19 PM MDT on September 26, 2016 (GMT -0600)
Canyonlands

Weather History for KCNY - September, 2011

Change the Weather History Date:

Tuesday, September 6, 2011

  Actual Average Record
Temperature  
Mean Temperature 70 °F 71 °F  
Max Temperature 81 °F 86 °F 108 °F (1976)
Min Temperature 62 °F 56 °F 43 °F (1936)
Degree Days  
Heating Degree Days 0 0  
Month to date heating degree days 0  
Since 1 July heating degree days 1  
Cooling Degree Days 5 6  
Month to date cooling degree days 42  
Year to date cooling degree days 1208  
Growing Degree Days 20 (Base 50)    
Moisture  
Dew Point 54 °F    
Average Humidity 65    
Maximum Humidity 88    
Minimum Humidity 34    
Precipitation  
Precipitation 0.02 in 0.03 in 0.92 in (1939)
Month to date precipitation 0.17  
Year to date precipitation 5.55  
Sea Level Pressure  
Sea Level Pressure 30.06 in    
Wind  
Wind Speed 8 mph (ENE)    
Max Wind Speed 20 mph    
Max Gust Speed -    
Visibility 10 miles    
Events Rain    
T = Trace of Precipitation, MM = Missing Value Source: NWS Daily Summary

Daily Weather History Graph

Daily Weather History Graph

Search for Another Location

Airport or City:

Trip Planner

Search our weather history database for the weather conditions in past years. The results will help you decide how hot, cold, wet, or windy it might be!

Date:

Astronomy

Sep. 06, 2011 Rise Set
Actual Time 6:52 AM MDT 7:41 PM MDT
Civil Twilight 6:25 AM MDT 8:08 PM MDT
Nautical Twilight 5:53 AM MDT 8:40 PM MDT
Astronomical Twilight 5:20 AM MDT 9:13 PM MDT
Moon 4:17 PM MDT (9/6) 1:13 AM MDT (9/6)
Length of Visible Light 13h 43m
Length of Day
12h 49m
Waxing Gibbous, 71% of the Moon is Illuminated
Sep 6
Waxing Gibbous
Sep 12
Full
Sep 20
Last Quarter
Sep 27
New
Oct 3
First Quarter

Hourly Weather History & Observations

Time (MDT) Temp. Dew Point Humidity Pressure Visibility Wind Dir Wind Speed Gust Speed Precip Events Conditions
12:53 AM 66.0 °F 57.0 °F 73% 29.98 in 10.0 mi NW 17.3 mph - 0.00 in Rain Light Rain
1:53 AM 64.9 °F 55.9 °F 73% 29.98 in 10.0 mi NNW 5.8 mph - 0.00 in   Overcast
2:53 AM 62.1 °F 57.9 °F 86% 29.97 in 10.0 mi Calm Calm - 0.01 in Rain Light Rain
3:53 AM 62.6 °F 59.0 °F 88% 30.17 in 10.0 mi SSE 5.8 mph - N/A   Overcast
4:53 AM 63.0 °F 59.0 °F 87% 30.00 in 10.0 mi East 3.5 mph - N/A   Overcast
5:53 AM 63.0 °F 59.0 °F 87% 30.01 in 10.0 mi SE 5.8 mph - N/A   Mostly Cloudy
6:53 AM 63.0 °F 57.9 °F 84% 30.03 in 10.0 mi North 4.6 mph - N/A   Overcast
7:53 AM 63.0 °F 59.0 °F 87% 30.04 in 10.0 mi ESE 4.6 mph - 0.01 in Rain Light Rain
8:53 AM 63.0 °F 59.0 °F 87% 30.08 in 10.0 mi SE 3.5 mph - 0.00 in   Overcast
9:53 AM 64.9 °F 57.9 °F 78% 30.07 in 10.0 mi East 6.9 mph - 0.00 in Rain Light Rain
10:53 AM 66.0 °F 57.9 °F 75% 30.07 in 10.0 mi ESE 5.8 mph - 0.00 in   Clear
11:53 AM 71.1 °F 57.9 °F 63% 30.08 in 10.0 mi East 8.1 mph - N/A   Scattered Clouds
12:53 PM 70.0 °F 55.0 °F 59% 30.06 in 10.0 mi SE 3.5 mph - 0.00 in   Mostly Cloudy
1:53 PM 73.0 °F 53.1 °F 49% 30.04 in 10.0 mi Variable 5.8 mph - N/A   Clear
2:53 PM 75.9 °F 53.1 °F 45% 30.01 in 10.0 mi ESE 3.5 mph - N/A   Clear
3:53 PM 78.1 °F 52.0 °F 40% 29.99 in 10.0 mi SE 8.1 mph - N/A   Scattered Clouds
4:53 PM 75.2 °F 44.6 °F 34% 30.14 in 10.0 mi NE 18.4 mph - N/A   Scattered Clouds
5:53 PM 71.6 °F 48.2 °F 43% 30.17 in 10.0 mi NNW 19.6 mph - N/A   Overcast
6:53 PM 73.4 °F 46.4 °F 38% 30.16 in 10.0 mi East 4.6 mph - N/A   Mostly Cloudy
7:53 PM 66.0 °F 52.0 °F 60% 30.06 in 10.0 mi NNW 11.5 mph - N/A   Overcast
8:53 PM 68.0 °F 48.9 °F 50% 30.06 in 10.0 mi NNE 4.6 mph - N/A   Clear
9:53 PM 69.1 °F 48.9 °F 49% 30.06 in 10.0 mi East 9.2 mph - N/A   Clear
10:53 PM 66.9 °F 51.1 °F 57% 30.07 in 10.0 mi NE 6.9 mph - N/A   Clear
11:53 PM 64.9 °F 51.1 °F 61% 30.08 in 10.0 mi WNW 4.6 mph - N/A   Clear